TimeCST,TemperatureF,Dew PointF,Humidity,Sea Level PressureIn,VisibilityMPH,Wind Direction,Wind SpeedMPH,Gust SpeedMPH,PrecipitationIn,Events,Conditions,WindDirDegrees,DateUTC
12:40 AM,62.6,51.8,68,30.07,7.0,NNE,3.5,-,N/A,,Scattered Clouds,30,2013-01-22 06:40:00
1:47 AM,68.0,59.0,73,30.06,7.0,North,4.6,-,N/A,,Partly Cloudy,10,2013-01-22 07:47:00
2:44 AM,68.0,59.0,73,30.07,7.0,North,4.6,-,N/A,,Partly Cloudy,360,2013-01-22 08:44:00
3:54 AM,68.0,62.6,83,30.04,7.0,NNE,4.6,-,N/A,,Partly Cloudy,20,2013-01-22 09:54:00
5:26 AM,62.6,55.4,77,30.06,7.0,Calm,Calm,-,N/A,,Partly Cloudy,0,2013-01-22 11:26:00
5:40 AM,62.6,55.4,77,30.03,7.0,Calm,Calm,-,N/A,,Partly Cloudy,0,2013-01-22 11:40:00
6:43 AM,60.8,53.6,77,30.08,8.0,Calm,Calm,-,N/A,,Partly Cloudy,0,2013-01-22 12:43:00
7:48 AM,69.8,60.8,73,30.10,8.0,Calm,Calm,-,N/A,,Scattered Clouds,0,2013-01-22 13:48:00
8:48 AM,73.4,62.6,69,30.16,8.0,North,6.9,-,N/A,,Mostly Cloudy,350,2013-01-22 14:48:00
9:50 AM,75.2,64.4,69,30.14,8.0,Calm,Calm,-,N/A,,Scattered Clouds,0,2013-01-22 15:50:00
10:45 AM,77.0,60.8,57,30.13,8.0,ENE,6.9,-,N/A,,Scattered Clouds,60,2013-01-22 16:45:00
11:46 AM,73.4,59.0,61,30.09,8.0,North,8.1,-,N/A,,Mostly Cloudy,360,2013-01-22 17:46:00
12:44 PM,75.2,62.6,65,30.10,8.0,NE,8.1,-,N/A,,Mostly Cloudy,50,2013-01-22 18:44:00
1:42 PM,77.0,60.8,57,30.08,8.0,NE,11.5,-,N/A,,Mostly Cloudy,50,2013-01-22 19:42:00
2:43 PM,77.0,60.8,57,30.07,8.0,NE,13.8,-,N/A,,Mostly Cloudy,50,2013-01-22 20:43:00
3:46 PM,75.2,60.8,61,30.07,8.0,ENE,13.8,-,N/A,,Mostly Cloudy,70,2013-01-22 21:46:00
4:42 PM,75.2,59.0,57,30.09,8.0,ENE,6.9,-,N/A,,Mostly Cloudy,70,2013-01-22 22:42:00
5:40 PM,71.6,59.0,64,30.06,8.0,ENE,5.8,-,N/A,,Mostly Cloudy,70,2013-01-22 23:40:00
6:45 PM,71.6,57.2,60,30.11,7.0,ENE,5.8,-,N/A,,Scattered Clouds,70,2013-01-23 00:45:00
7:43 PM,71.6,59.0,64,30.13,7.0,ENE,11.5,-,N/A,,Scattered Clouds,60,2013-01-23 01:43:00
8:46 PM,71.6,59.0,64,30.18,7.0,ENE,9.2,-,N/A,,Scattered Clouds,60,2013-01-23 02:46:00
9:40 PM,71.6,57.2,60,30.15,7.0,ENE,8.1,-,N/A,,Scattered Clouds,70,2013-01-23 03:40:00
10:40 PM,71.6,57.2,60,30.15,7.0,ENE,8.1,-,N/A,,Scattered Clouds,60,2013-01-23 04:40:00
11:40 PM,71.6,57.2,60,30.10,7.0,ENE,9.2,-,N/A,,Scattered Clouds,60,2013-01-23 05:40:00